Weather in Myakit

Russia / Magadan District     61°24′29″N   152°05′19″E
temp.,
°C
wind,
m/s
gust,
m/s
humid.,
%
clouds,
%
prec.,
mm/h
press.,
hPa
HPBL,
m
12 august, fri
fri1223:00+11ssw3485100 0.1 1004114
02:00+9ssw339233 0.0 100546
05:00+9ssw239299 0.0 100553
08:00+11sw238115 0.0 1005354
11:00+15wsw216564 0.0 1005964
14:00+17nw125338 0.8 10051377
17:00+17ne115449 2.1 1005933
20:00+16ne1167100 0.8 100711
13 august, sat
sat1323:00+13ene117464 0.8 100810
02:00+13ene117481 0.0 100810
05:00+11ene118026 0.0 100910
08:00+15e11685 0.0 1010314
11:00+17e335735 0.0 1009994
14:00+20ese4445100 0.0 10081905
17:00+20se5541100 0.0 10071605
20:00+17se3554100 0.0 100879
14 august, sun
sun1423:00+14sse226686 0.0 100913
02:00+12sse2275100 0.0 100911
05:00+11ese1180100 0.0 101010
08:00+14ese1270100 0.0 1010234
11:00+15se3466100 0.1 1010771
14:00+12e1187100 1.8 1011191
17:00+13e128497 2.0 1011301
20:00+12e1192100 0.8 101135
15 august, mon
mon1523:00+11ese1192100 0.8 101110
02:00+11ene1191100 0.2 101111
05:00+11ene119256 0.7 101110
08:00+13e117834 0.8 1010242
11:00+15ese235999 1.1 1009942
14:00+16s235252 0.0 10081331
17:00+16ese1253100 0.1 1008831
20:00+13nne4580100 0.3 1007162
16 august, tue
tue1623:00+10n4590100 0.4 1008187
02:00+9n3495100 0.0 100762
05:00+9n3696100 0.0 1004160
08:00+10n4790100 0.0 1003396
11:00+10nnw5893100 3.4 1001450
14:00+10nnw41194100 4.0 998679
17:00+10nnw41096100 10.2 996677
20:00+10nnw4994100 3.4 995632